www.pogodaiklimat.ru

Погода и климат >> Архив погоды >> Китай >> Lu Shan


ПОГОДА в Lu Shan

  • Прогноз погоды в Lu Shan
  • Монитор погоды в Lu Shan
  • Климат города

АРХИВ ПОГОДЫ в Lu Shan

Время (UTC), дата Ветер
(напр.,м/с)
 
Видим.   Явления Облачность Т
(С)
Тd
(С)
f
(%)
Тe
(С)
Тes
(С)
Комфортность P
(гПа)
Po
(гПа)
Тmin
(С)
Tmax
(С)
R
(мм)
R24
(мм)
S
(см)
18 15.02 Ю 3 1900 м дымка ?/? +6.6 +6.6 100 +3 +3 1018.0 1018.0 +9.0
21 15.02 ЮЗ 2 15 км ?/? +6.3 +6.3 100 +4 +4 1017.9 1018.0
00 16.02 С 3 100 м туман ?/? +4.4 +4.4 100 +1 +1 1019.7 1020.0 1
03 16.02 С 1 2800 м дымка {дождь, туман} ?/? +7.7 +7.7 100 +7 +7 1020.3 1020.0
06 16.02 З 2 17 км {дождь, туман} 9/9 300 м
[]
+7.1 +5.9 92 +5 +6 1020.0 1019.7 +3.4 0.3
09 16.02 ЮЗ 1 22 км ясно +7.4 +4.0 79 +7 +7 1020.3 1020.0
12 16.02 С 1 26 км ясно +4.6 +2.9 89 +3 +3 1022.3 1022.0
18 16.02 В 1 28 км ?/? +7.7 -2.3 49 +7 +7 1021.5 887.6 +9.6
21 16.02 Ю 2 29 км ?/? +6.9 -2.0 53 +5 +5 1020.6 1021.0
00 17.02 ЮВ 6 26 км ясно +8.8 -1.6 48 +5 +6 1020.6 1042.8
03 17.02 Ю 9
{19}
22 км ясно +11.5 -0.3 44 +8 +9 1018.7 1019.0
06 17.02 Ю 8
{19}
22 км ясно +10.9 +1.4 52 +8 +9 1016.1 1016.0 +4.6
09 17.02 Ю 7
{18}
20 км ясно +11.4 +6.7 73 +8 +8 1015.0 1015.0
12 17.02 Ю 4 12 км 8/8 300 м
[]
+7.8 +7.8 100 +4 +4 1016.6 883.7
18 17.02 Ю 7 16 км ?/? +11.8 +10.4 91 +9 +9 1016.0 1016.0 +12.3
21 17.02 Ю 4 13 км ?/? +10.9 +10.3 96 +8 +8 1015.9 1016.0
00 18.02 Ю 6 10 км 10/10 300 м
[]
+10.7 +10.7 100 +7 +7 1018.1 1018.0
03 18.02 Ю 5 10 км ?/? +10.5 +10.5 100 +7 +7 1017.6 1018.0
06 18.02 ЮЗ 2 12 км 10/10 300 м
[]
+9.6 +8.5 93 +8 +8 1015.5 1016.0 +7.0
09 18.02 С 4 100 м туман ?/? +3.4 +3.4 100 -2 -2 1018.1 1018.0
12 18.02 Ю 3 700 м в посл. час туман ?/? +7.0 +7.0 100 +4 +4 1018.5 1019.0
18 18.02 ЮВ 1 1900 м дымка ?/? +7.5 +7.5 100 +6 +6 1019.3 1019.0 +11.8
21 18.02 Ю 5 7000 м ?/? +9.9 +9.9 100 +7 +7 1018.3 1018.0
00 19.02 Ю 1 100 м туман ?/? +5.9 +5.9 100 +5 +5 1020.0 1020.0 0.2
03 19.02 С 4 100 м туман ?/? +0.9 +0.9 100 -5 -5 1021.8 1022.0
06 19.02 С 3 <100 м слабый дождь {туман} ?/? +0.9 +0.9 100 -4 -4 1019.7 1043.1 +0.7 0.8
09 19.02 С 2 100 м слабый дождь {туман} ?/? +2.1 +2.1 100 -1 -1 1019.0 1019.0
12 19.02 С 4 100 м туман {дождь} ?/? +0.8 +0.8 100 -5 -5 1021.6 885.9 3
18 19.02 штиль 0 6000 м ?/? +3.8 +3.8 100 +3 +3 1021.8 1022.0 +10.6 0.3
21 19.02 С 2 200 м туман ?/? -0.1 -0.1 100 -4 -4 1021.5 1022.0
00 20.02 С 1 200 м туман ?/? +2.4 +2.4 100 0 0 1021.5 1022.0 0.3
03 20.02 ЮВ 1 200 м слабый дождь {туман} ?/? +1.5 +1.5 100 -1 -1 1020.7 1021.0
06 20.02 СВ 2 100 м слабый дождь {туман} ?/? +1.9 +1.9 100 -2 -2 1018.7 1019.0 -0.3 5
09 20.02 С 5 400 м слабый дождь {туман} ?/? -0.2 -0.2 100 -7 -7 1021.1 1021.0
12 20.02 СВ 6 300 м слабый переохл. дождь (гололёд) {туман} [диам. гололёда 27 мм] ?/? -0.3 -0.3 100 -7 -7 1022.7 1023.0 8
18 20.02 СВ 4 16 км ?/? +0.5 +0.5 100 -5 -5 1023.7 886.7 +3.8
21 20.02 С 5 300 м туман н/о -0.6 -0.6 100 -7 -7 1025.1 1025.0
00 21.02 С 5 300 м переохл. туман [диам. гололёда 27 мм] ?/? -1.1 -1.1 100 -8 -8 1025.6 1026.0
03 21.02 В 5 500 м туман ?/? +0.4 +0.4 100 -6 -6 1026.4 1026.0
06 21.02 С 3 400 м слабый дождь со снегом {туман} ?/? +0.1 +0.1 100 -5 -5 1024.5 1048.4 -1.5 1
09 21.02 СВ 7 400 м слабый дождь со снегом {туман} н/о -1.2 -1.2 100 -9 -9 1024.7 1025.0
12 21.02 С 5 400 м слабый дождь со снегом {туман} [диам. гололёда 27 мм] ?/? -0.8 -0.8 100 -7 -7 1026.2 887.9 2
18 21.02 С 5 300 м туман ?/? -1.0 -1.0 100 -8 -8 1026.5 1027.0 +1.2
21 21.02 С 4 7000 м в посл. час туман ?/? -1.5 -1.5 100 -8 -8 1025.8 1026.0
00 22.02 С 5 11 км [диам. гололёда 27 мм] 10/10 100 м
[]
-1.9 -1.9 100 -9 -9 1028.4 1028.0
03 22.02 СВ 2 100 м туман ?/? -0.1 -0.1 100 -4 -4 1028.8 1029.0
06 22.02 С 3 400 м в посл. час туман ?/? +4.6 +3.7 94 +1 +1 1025.1 1025.0 -2.0
09 22.02 Ю 1 11 км {туман} ясно +3.9 +1.9 87 +2 +3 1025.0 1025.0
12 22.02 З 1 30 км {туман} ясно +2.7 -25.9 10 +3 +3 1027.0 1027.0

 

Местоположение метеостанции Lu Shan (Китай): широта 29.58 долгота 115.98 высота над уровнем моря 1165 м.

В архиве по умолчанию представлена погода в Lu Shan за последнюю неделю. Архивные данные за месяц целиком и за предыдущие месяцы, начиная с января 2011 года, Вы можете получить, выбрав интересующий диапазон дат из раскрывающегося списка и нажав кнопку "Ввод!".

Внимание! Время в таблицах - всемирное. Для получения местного времени необходимо прибавить поправку, которая в Lu Shan равна 8 ч.

Смотрите также архив погоды в соседних городах и на ближайших метеорологических станциях:

Погода в Nanchang (Китай) (109 км)
Погода в Jingdezhen (Китай) (122 км)
Погода в Anqing (Китай) (148 км)
Погода в Xiushui (Китай) (149 км)
Погода в Macheng (Китай) (203 км)
Погода в Huoshan (Китай) (205 км)
Погода в Wuhan (Китай) (212 км)
Погода в Huang Shan (Китай) (218 км)
Погода в Nancheng (Китай) (232 км)
Погода в Yichun (Китай) (252 км)

Пояснения к столбцам:

Ветер - указаны скорость ветра в м/с - средняя за 10 мин, порывы в срок и между сроками (в фигурных скобках) и направление, откуда дует ветер: С - северный, СВ - северо-восточный, В - восточный, ЮВ - юго-восточный, Ю - южный, ЮЗ - юго-западный, З - западный, СЗ - северо-западный.
Видимость - горизонтальная дальность видимости в метрах или километрах. При видимости от 1 до 10 км при отсутствии осадков обычно наблюдается дымка, при ухудшении видимости до 1 км и менее - туман. В сухую погоду видимость может ухудшаться дымом, пылью или мглою.
Явления - указаны атмосферные явления, наблюдавшиеся в срок или в последний час перед сроком; фигурными скобками обозначены явления, наблюдавшиеся между сроками (за 1-3 часа до срока); квадратными скобками обозначены град или гололедные отложения с указанием их диаметра в мм.
Облачность - указаны через наклонную черту общая и нижняя облачность в баллах и высота нижней границы облаков в метрах; квадратными скобками обозначены формы облаков: Ci - перистые, Cs - перисто-слоистые, Cc - перисто-кучевые, Ac - высококучевые, As - высокослоистые, Sc - слоисто-кучевые, Ns - слоисто-дождевые, Cu - кучевые, Cb - кучево-дождевые. Подробнее классификацию облаков см. в Атласе облаков (PDF).
T - Температура воздуха - температура, измеренная на высоте 2 м над землей.
Td - Температура точки росы - температура, при понижении до которой содержащийся в воздухе водяной пар достигнет насыщения.
f - Относительная влажность воздуха - влажноcть воздуха, измеренная на высоте 2 м над землей.
Te - Эффективная температура - температура, которую ощущает одетый по сезону человек в тени. Характеристика душности погоды. При расчете учитывается влияние влажности воздуха и скорости ветра на теплоощущения человека.
Tes - Эффективная температура на солнце - температура, которую ощущает человек, с поправкой на солнечный нагрев. Характеристика знойности погоды. Зависит от высоты солнца над горизонтом, облачности и скорости ветра. Ночью, в пасмурную погоду, а также при ветре 12 м/с и более поправка равна нулю.
P - Атмосферное давление - приведенное к уровню моря атмосферное давление.
Po - Атмосферное давление - измеренное на уровне метеостанции атмосферное давление.
Tmin - Минимальная температура - минимум температуры воздуха на высоте 2 м над землей.
Tmax - Максимальная температура - максимум температуры воздуха на высоте 2 м над землей.
R - Количество осадков - Количество выпавших осадков за период времени, мм. При наведении курсора мыши на число - период времени, за который выпало указанное количество осадков.
R24 - Количество осадков - Количество выпавших осадков за 24 часа, мм.
S - Снежный покров - Высота снежного покрова, см. При наведении курсора мыши на число - состояние снежного покрова и степень покрытия местности в баллах.